Overview Statistics Trail Chart Weather Telemetry Raw packets
 

This is the latest recevied weather packets stored in our database for station/object SA0CBP-10. If no packets are shown the sender has not sent any weather packets the latest 10 day(s).

<< 1 2 3 4 5 6 >>
Time Temp. Humidity Pressure Rain* Wind** Luminosity Snow
1788551115 25.56° C 30% 996.7 hPa - - - -
1788549375 25° C 30% 996.7 hPa - - - -
1788547635 25° C 29% 997 hPa - - - -
1788545895 25° C 29% 997 hPa - - - -
1788544155 25.56° C 29% 997.2 hPa - - - -
1788542415 25.56° C 28% 997.4 hPa - - - -
1788540675 26.11° C 29% 997.5 hPa - - - -
1788538934 25.56° C 29% 997.6 hPa - - - -
1788537194 25.56° C 29% 997.7 hPa - - - -
1788535454 26.11° C 29% 997.9 hPa - - - -
1788533714 26.11° C 28% 997.8 hPa - - - -
1788531974 26.11° C 28% 998.1 hPa - - - -
1788530234 26.11° C 28% 998.3 hPa - - - -
1788528494 26.11° C 28% 998.4 hPa - - - -
1788526753 26.11° C 28% 998.7 hPa - - - -
1788525013 26.67° C 28% 998.8 hPa - - - -
1788523273 26.11° C 28% 999.3 hPa - - - -
1788521533 26.11° C 28% 999.6 hPa - - - -
1788519793 26.67° C 28% 999.9 hPa - - - -
1788518053 26.11° C 28% 1000.1 hPa - - - -
1788516312 26.67° C 28% 1000.2 hPa - - - -
1788514572 26.11° C 27% 1000.3 hPa - - - -
1788512832 26.11° C 27% 1000.4 hPa - - - -
1788511092 26.11° C 28% 1000.7 hPa - - - -
1788509352 26.11° C 28% 1000.7 hPa - - - -

* Rain since midnight (hover to see other rain measurements)
** Current wind speed in m/s (hover to see current wind gust speed)